Wind_Speed
18 19 19 19 19 19 19 19 20 19 19 20 21 21 22 22 22 23 24 24 24 24 25 25 26 26 26 26 26 26 27 28 28 28 28 28 29 28
18 19 19 19 19 19 19 20 21 21 21 21 22 22 23 23 23 24 24 25 25 25 25 25 26 27 27 27 27 28 28 28 28 28 29 29 29 29
19 19 19 20 20 20 21 21 21 22 22 22 23 23 24 23 24 25 25 26 26 26 26 26 26 26 27 27 28 28 28 29 29 29 29 29 29 29
19 19 19 20 20 21 22 22 22 23 23 22 23 24 24 24 25 26 27 27 27 26 27 27 27 27 27 27 27 28 29 30 30 30 30 29 30 30
21 20 20 21 22 22 22 23 23 24 24 23 24 24 25 25 26 26 26 26 26 26 27 27 27 26 26 27 27 28 28 29 30 31 31 31 30 31
22 22 22 22 23 23 23 23 24 24 24 24 25 25 25 26 26 25 24 25 25 26 26 26 26 26 26 27 27 28 29 30 31 31 32 33 33 32
22 22 22 22 23 23 23 24 24 25 25 25 25 25 26 26 26 26 25 26 25 26 26 27 26 27 27 28 28 29 30 30 31 31 31 32 33 33
23 23 23 23 24 24 25 25 25 25 25 25 25 26 27 26 26 26 27 26 25 26 26 26 27 28 29 29 28 28 29 30 31 32 32 32 33 33
24 24 24 24 24 25 25 26 26 26 25 25 25 26 26 26 26 26 26 26 26 26 26 26 27 28 28 28 28 29 30 30 29 30 31 31 32 33
25 25 25 24 25 25 25 25 26 26 26 26 26 27 26 26 26 27 27 26 26 26 27 26 27 27 27 27 27 29 30 30 30 30 31 31 31 32
25 26 26 25 25 25 24 25 25 26 27 27 27 26 26 26 26 27 27 26 26 26 27 27 26 26 27 26 27 28 29 30 31 31 31 32 32 32
25 25 25 24 24 24 24 23 24 25 26 27 26 26 25 25 25 25 25 26 26 26 27 27 26 26 25 26 26 28 29 29 30 31 31 32 33 33
25 24 24 24 24 24 24 23 24 25 25 25 25 24 24 24 24 24 24 25 26 26 26 26 26 26 26 26 26 27 28 28 29 29 30 31 32 32
24 24 24 24 24 23 23 24 24 24 24 24 23 23 23 24 24 24 24 25 25 26 26 26 26 26 26 26 27 27 27 28 29 29 29 30 31 32
23 23 23 23 23 23 23 24 24 24 24 24 23 23 23 24 24 24 24 24 24 25 25 25 26 26 26 26 26 27 27 28 28 29 30 30 30 31
23 23 23 24 24 24 23 23 23 23 23 23 22 22 22 22 22 22 23 23 23 24 24 25 26 26 26 26 26 26 27 28 28 29 30 30 30 30
22 22 22 22 22 22 22 22 22 22 22 22 22 22 21 22 22 22 22 22 22 23 24 24 25 25 25 25 25 26 26 27 28 28 29 29 30 30
22 22 22 22 22 21 21 21 22 22 23 22 22 22 22 22 22 22 22 21 22 22 23 23 23 24 25 25 26 26 26 27 27 28 28 28 28 28
22 22 22 21 21 22 22 22 22 22 22 22 21 21 22 22 22 21 22 22 22 22 22 22 23 24 24 24 25 25 25 25 25 25 25 25 26 26
22 22 22 22 22 22 23 23 22 22 23 22 22 22 23 23 22 22 21 21 21 21 22 22 22 22 24 24 24 24 24 24 24 24 23 23 23 23
22 21 21 22 22 23 23 22 22 23 23 23 22 22 22 22 22 22 22 21 21 22 22 22 22 22 22 22 22 22 22 22 23 23 22 22 22 22
22 21 22 22 22 22 22 22 22 23 24 23 22 23 22 22 22 23 22 22 22 22 22 22 22 22 22 22 21 21 20 21 21 22 22 22 22 22
22 22 23 23 23 23 23 23 23 23 23 22 22 23 22 22 23 22 22 21 21 21 21 21 22 22 22 22 22 20 20 20 21 21 21 21 21 21
Wind_Direction
289 288 287 286 286 286 284 283 282 279 275 273 273 273 272 269 267 266 266 266 266 265 264 263 262 261 261 259 257 254 253 252 252 250 249 249 250 250
290 288 287 285 284 285 286 285 283 280 277 275 274 274 273 271 269 267 265 264 263 264 264 264 263 262 262 260 258 255 253 253 252 251 250 248 248 249
292 288 286 285 284 284 283 283 283 281 279 276 275 275 273 271 270 268 266 264 262 261 261 263 264 263 263 263 261 257 254 253 252 252 250 248 249 251
292 289 287 286 285 284 283 283 282 281 278 277 277 276 274 273 270 270 269 267 263 260 262 262 262 262 262 262 260 258 256 254 253 251 251 250 251 251
292 290 289 288 286 285 284 282 281 280 279 278 278 276 275 275 273 271 268 266 264 262 261 262 262 262 262 262 260 259 258 255 253 252 250 250 251 251
293 292 290 289 288 286 285 283 282 279 278 279 278 277 277 276 273 269 267 266 267 266 264 263 262 262 261 262 261 259 258 255 254 253 251 250 250 251
295 293 291 289 288 287 286 284 283 282 280 280 279 278 279 276 271 269 268 268 268 268 267 266 265 262 261 262 261 259 256 254 255 254 253 250 250 250
293 293 291 289 287 286 286 285 284 283 282 282 281 280 280 275 270 268 270 269 268 268 268 268 267 264 261 261 260 258 258 256 256 254 253 251 251 251
293 293 291 289 287 287 286 285 284 284 284 283 282 282 280 275 271 270 270 269 268 267 267 268 269 266 261 259 257 257 256 256 255 254 253 252 252 252
295 296 294 292 289 289 288 286 285 284 284 283 283 281 279 276 273 271 271 267 267 266 267 268 269 266 263 261 259 257 256 256 255 254 252 252 252 252
297 297 295 293 292 292 291 288 286 285 284 283 283 282 280 277 275 273 270 267 267 268 269 269 267 265 261 260 259 259 258 257 256 254 253 252 251 251
297 296 295 294 293 292 291 290 290 289 286 284 284 283 281 280 278 275 271 268 268 267 267 268 267 265 262 261 261 260 258 257 256 256 255 254 253 251
297 297 296 296 295 294 294 293 294 292 289 286 285 283 282 282 281 277 273 270 268 268 268 268 268 266 263 260 259 260 260 257 256 256 256 256 255 253
298 297 296 296 295 295 296 295 294 292 291 289 285 282 282 282 281 278 275 272 269 268 267 267 267 265 263 260 258 259 260 259 257 257 257 256 256 253
300 299 296 295 294 295 294 294 293 292 293 291 287 282 283 283 281 279 276 274 271 269 267 267 267 266 265 263 259 259 260 259 258 258 258 258 256 255
299 299 295 294 295 296 295 294 293 293 294 293 289 285 283 284 284 281 278 275 274 272 269 268 267 266 265 263 261 260 259 259 258 257 256 257 257 255
301 299 297 295 296 296 295 295 296 295 294 292 288 284 282 284 285 284 281 278 277 275 272 270 269 267 264 263 262 261 259 258 257 256 257 257 256 255
301 300 300 298 298 298 299 300 299 298 297 294 290 287 285 285 286 284 281 279 277 275 273 271 269 267 265 264 264 263 262 260 261 259 258 257 255 254
301 301 300 300 299 299 300 299 298 298 298 296 293 290 288 287 287 286 284 281 278 275 273 271 269 268 266 264 264 264 264 264 264 261 259 258 256 253
304 303 302 300 300 300 300 299 298 299 300 297 294 292 290 288 285 285 285 283 280 276 273 271 269 267 266 265 264 264 263 262 261 260 260 258 255 254
307 305 304 303 301 301 302 301 299 299 299 296 295 296 293 290 288 287 285 283 281 278 274 270 267 265 265 264 266 265 263 261 259 258 258 257 255 254
309 307 306 305 305 303 302 302 301 300 301 298 297 296 296 294 293 290 287 283 281 279 276 273 269 266 265 266 268 265 263 259 258 256 256 254 254 255
307 307 309 310 309 305 303 302 301 302 302 298 297 297 296 296 295 293 290 285 281 278 276 273 269 266 267 268 268 265 261 258 255 254 255 253 253 254
Height
5827 5826 5824 5823 5822 5821 5820 5819 5818 5817 5816 5816 5815 5814 5813 5813 5812 5813 5812 5812 5811 5811 5811 5810 5810 5810 5810 5810 5810 5811 5812 5813 5814 5816 5818 5819 5821 5823
5822 5820 5818 5817 5816 5815 5813 5812 5811 5810 5809 5808 5808 5807 5806 5806 5805 5804 5804 5804 5803 5803 5802 5802 5802 5802 5802 5802 5802 5803 5804 5805 5806 5808 5809 5811 5813 5815
5816 5814 5812 5811 5809 5808 5807 5805 5804 5803 5802 5801 5800 5800 5799 5798 5797 5796 5796 5795 5795 5794 5794 5794 5794 5794 5793 5794 5794 5794 5795 5796 5798 5799 5801 5802 5804 5807
5809 5807 5806 5804 5803 5801 5800 5799 5797 5796 5795 5794 5793 5792 5791 5790 5789 5788 5787 5787 5786 5786 5786 5786 5785 5785 5785 5785 5786 5786 5787 5788 5789 5791 5793 5795 5797 5798
5803 5801 5799 5797 5796 5794 5793 5792 5790 5789 5787 5786 5785 5783 5782 5781 5780 5780 5779 5779 5778 5777 5777 5777 5777 5777 5777 5777 5777 5778 5778 5779 5780 5782 5784 5786 5788 5790
5797 5794 5792 5790 5788 5787 5785 5784 5782 5781 5780 5778 5777 5775 5774 5773 5772 5771 5771 5770 5770 5769 5769 5768 5768 5768 5768 5769 5769 5769 5770 5770 5771 5773 5774 5776 5779 5781
5790 5788 5785 5783 5781 5779 5778 5776 5774 5773 5771 5770 5768 5766 5765 5764 5763 5763 5762 5762 5762 5761 5761 5761 5761 5761 5760 5760 5760 5760 5761 5761 5762 5763 5765 5767 5770 5772
5784 5781 5778 5776 5774 5772 5770 5768 5766 5764 5763 5761 5760 5758 5757 5756 5755 5754 5754 5754 5754 5754 5753 5752 5752 5752 5751 5751 5751 5751 5752 5753 5754 5755 5756 5758 5760 5763
5776 5773 5771 5768 5766 5764 5762 5760 5758 5756 5755 5753 5752 5750 5749 5747 5746 5746 5745 5745 5745 5745 5744 5744 5743 5743 5743 5742 5742 5743 5743 5744 5745 5746 5747 5749 5751 5754
5768 5765 5763 5760 5758 5756 5754 5752 5750 5748 5746 5745 5744 5742 5740 5739 5738 5738 5737 5737 5737 5736 5736 5737 5735 5734 5734 5733 5734 5734 5735 5736 5736 5737 5739 5741 5743 5745
5761 5758 5755 5753 5750 5748 5746 5744 5742 5740 5738 5736 5735 5734 5732 5731 5730 5729 5729 5728 5729 5728 5727 5727 5727 5725 5725 5725 5726 5726 5727 5727 5728 5729 5730 5732 5734 5736
5754 5751 5747 5745 5742 5740 5738 5736 5735 5732 5730 5728 5727 5725 5724 5723 5721 5720 5720 5719 5720 5720 5719 5718 5718 5718 5718 5718 5718 5718 5718 5719 5720 5721 5722 5724 5725 5727
5746 5744 5741 5738 5736 5733 5731 5729 5727 5724 5722 5720 5719 5717 5716 5715 5713 5712 5711 5711 5711 5711 5711 5710 5709 5709 5709 5710 5710 5710 5710 5711 5711 5712 5714 5715 5716 5718
5740 5737 5734 5732 5729 5727 5724 5722 5719 5717 5715 5713 5711 5710 5709 5707 5706 5704 5703 5703 5702 5702 5701 5701 5701 5701 5701 5701 5702 5702 5701 5702 5703 5704 5705 5707 5708 5710
5733 5730 5728 5725 5723 5720 5717 5715 5712 5710 5708 5706 5704 5703 5701 5700 5698 5697 5696 5695 5694 5694 5693 5693 5693 5693 5693 5693 5693 5693 5694 5694 5694 5695 5697 5698 5700 5701
5727 5724 5721 5719 5716 5713 5711 5708 5706 5703 5701 5699 5697 5695 5694 5693 5691 5690 5688 5688 5687 5686 5685 5685 5684 5684 5684 5685 5685 5685 5686 5686 5686 5687 5688 5689 5690 5692
5721 5718 5715 5713 5710 5707 5705 5702 5699 5697 5694 5692 5690 5688 5687 5685 5684 5683 5681 5680 5679 5678 5677 5677 5676 5676 5676 5677 5677 5677 5678 5678 5678 5678 5679 5680 5681 5683
5716 5713 5710 5707 5704 5702 5699 5696 5693 5691 5688 5686 5683 5681 5680 5678 5677 5675 5674 5672 5671 5670 5669 5669 5668 5668 5669 5669 5669 5669 5669 5670 5670 5670 5670 5671 5673 5673
5709 5707 5704 5701 5698 5696 5693 5691 5688 5685 5682 5679 5677 5675 5673 5671 5670 5668 5666 5665 5664 5663 5662 5661 5661 5661 5661 5661 5661 5661 5661 5661 5662 5662 5662 5664 5665 5665
5703 5701 5698 5696 5693 5690 5687 5684 5681 5679 5676 5673 5671 5668 5666 5665 5663 5661 5659 5658 5657 5656 5655 5654 5653 5653 5653 5654 5654 5654 5654 5654 5654 5655 5655 5656 5657 5658
5698 5695 5692 5689 5687 5684 5681 5678 5675 5673 5670 5667 5664 5662 5660 5658 5656 5654 5652 5651 5649 5648 5647 5647 5646 5646 5646 5646 5646 5646 5646 5646 5647 5647 5648 5649 5650 5652
5693 5690 5686 5683 5680 5677 5675 5672 5669 5666 5664 5661 5658 5656 5653 5651 5649 5647 5645 5644 5642 5641 5640 5639 5639 5639 5639 5639 5639 5639 5639 5639 5640 5640 5641 5642 5643 5645
5687 5684 5681 5678 5674 5671 5668 5665 5663 5660 5657 5654 5652 5649 5647 5645 5643 5640 5638 5637 5635 5634 5633 5633 5632 5632 5632 5632 5632 5632 5632 5633 5633 5634 5635 5635 5636 5638